Weather in Zheleznodorozhny

Russia / Chelyabinsk Oblast     55°05′57″N   61°33′22″E
temp.,
°C
wind,
m/s
gust,
m/s
humid.,
%
clouds,
%
prec.,
mm/h
press.,
hPa
HPBL,
m
16 april, fri
fri1623:00+12wnw22655 0.0 102012
02:00+10wnw33723 0.0 102023
05:00+9wnw33740 0.0 102018
08:00+10nnw38734 0.0 1021285
11:00+10ne7784100 0.0 1022655
14:00+7ne6883100 0.0 1024657
17:00+7ne5774100 0.0 1026630
20:00+6ne367978 0.0 1026358
17 april, sat
sat1723:00+5ene2681100 0.0 1026222
02:00+5ene228191 0.0 102658
05:00+4ene2382100 0.0 102666
08:00+4e2479100 0.0 1026124
11:00+4ese2382100 0.0 1026172
14:00+5sse2373100 0.0 1025320
17:00+7sw236842 0.0 1024635
20:00+5ssw228132 0.0 102225
18 april, sun
sun1823:00+4wsw34892 0.0 102252
02:00+4nnw35775 0.0 102164
05:00+2wnw47740 0.0 1021114
08:00+5wnw511680 0.0 1020497
11:00+8nnw7105372 0.0 10201665
14:00+5nne686597 0.1 10241062
17:00+5nne7842100 0.1 10261830
20:00+2ne710458 0.0 1028609
19 april, mon
mon1923:000ene49550 0.0 1031489
02:00−1ne47530 0.0 1033459
05:00−2ne46580 0.0 1035438
08:00−2ne56400 0.0 1036919
11:000ne55352 0.0 10371488
14:00+1ne45335 0.0 10371714
17:00+2ne45335 0.0 10361766
20:000ene36465 0.0 1037144
20 april, tue
tue2023:00−2ene24530 0.0 1038112
02:00−2ene22530 0.0 103834
05:00−2ene01510 0.0 103913
08:000wnw11392 0.0 1039406
11:00+2w22310 0.0 10381015
14:00+5w23285 0.0 10371227
17:00+7wnw33270 0.0 10351397
20:00+4wsw22380 0.0 103510